Probability
0 0 0 0 0 0 0 0 0 0 0 0 0 0 0 0 0 0 0 0 0 0 0 0 0 0 0 0 0 0 0 0 0 0 0 0 0 0 0 0 0 0 0 0
0 0 0 0 0 0 0 0 0 0 0 0 0 0 0 0 0 0 0 0 0 0 0 0 0 0 0 0 0 0 0 0 0 0 0 0 0 0 0 0 0 0 0 0
0 0 0 0 0 0 0 0 0 0 0 0 0 0 0 0 0 0 0 0 0 0 0 0 0 0 0 0 0 0 0 0 0 0 0 0 0 0 0 0 0 0 0 0
0 0 0 0 0 0 0 0 0 0 0 0 0 0 0 0 0 0 0 0 0 0 0 0 0 0 0 0 0 0 0 0 0 0 0 0 0 0 0 0 0 0 0 0
0 0 0 0 0 0 0 0 0 0 0 0 0 0 0 0 0 0 0 0 0 0 0 0 0 0 0 0 0 0 0 0 0 0 0 0 0 0 0 0 0 0 0 0
0 0 0 0 0 0 0 0 0 0 0 0 0 0 0 0 0 0 0 0 0 0 0 0 0 0 0 0 0 0 0 0 0 0 0 0 0 0 0 0 0 0 0 0
0 0 0 0 0 0 0 0 0 0 0 0 0 0 0 0 0 0 0 0 0 0 0 0 0 0 0 0 0 0 0 0 0 0 0 0 0 0 0 0 0 0 0 0
0 0 0 0 0 0 0 0 0 0 0 0 0 0 0 0 0 0 0 0 0 0 0 0 0 0 0 0 0 0 0 0 0 0 0 0 0 0 0 0 0 0 0 0
0 0 0 0 0 0 0 0 0 0 0 0 0 0 0 0 0 0 0 0 0 0 0 0 0 0 0 0 0 0 0 0 0 0 0 0 0 0 0 0 0 0 0 0
0 0 0 0 0 0 0 0 0 0 0 0 0 0 0 0 0 0 0 0 0 0 0 0 0 0 0 0 0 0 0 0 0 0 0 0 0 0 0 0 0 0 0 0
0 0 0 0 0 0 0 0 0 0 0 0 0 0 0 0 0 0 0 0 0 0 0 0 0 0 0 0 0 0 0 0 0 0 0 0 0 0 0 0 0 0 0 0
0 0 0 0 0 0 0 0 0 0 0 0 0 0 0 0 0 0 0 0 0 0 0 0 0 0 0 0 0 0 0 0 0 0 0 0 0 0 0 0 0 0 0 0
0 0 0 0 0 0 0 0 0 0 0 0 0 0 0 0 0 0 0 0 0 0 0 0 0 0 0 0 0 0 0 0 0 0 0 0 0 0 0 0 0 0 0 0
0 0 0 0 0 0 0 0 0 0 0 0 0 0 0 0 0 0 0 0 0 0 0 0 0 0 0 0 0 0 0 0 0 0 0 0 0 0 0 0 0 0 0 0
0 0 0 0 0 0 0 0 0 0 0 0 0 0 0 0 0 0 0 0 0 0 0 0 0 0 0 0 0 0 0 0 0 0 0 0 0 0 0 0 0 0 0 0
0 0 0 0 0 0 0 0 0 0 0 0 0 0 0 0 0 0 0 0 0 0 0 0 0 0 0 0 0 0 0 0 0 0 0 0 0 0 0 0 0 0 0 0
0 0 0 0 0 0 0 0 0 0 0 0 0 0 0 0 0 0 0 0 0 0 0 0 0 0 0 0 0 0 0 0 0 0 0 0 0 0 0 0 0 0 0 0
0 0 0 0 0 0 0 0 0 0 0 0 0 0 0 0 0 0 0 0 0 0 0 0 0 0 0 0 0 0 0 0 0 0 0 0 0 0 0 0 0 0 0 0
0 0 0 0 0 0 0 0 0 0 0 0 0 0 0 0 0 0 0 0 0 0 0 0 0 0 0 0 0 0 0 0 0 0 0 0 0 0 0 0 0 0 0 0
0 0 0 0 0 0 0 0 0 0 0 0 0 0 0 0 0 0 0 0 0 0 0 0 0 0 0 0 0 0 0 0 0 0 0 0 0 0 0 0 0 0 0 0
0 0 0 0 0 0 0 0 0 0 0 0 0 0 0 0 0 0 0 0 0 0 0 0 0 0 0 0 0 0 0 0 0 0 0 0 0 0 0 0 0 0 0 0
0 0 0 0 0 0 0 0 0 0 0 0 0 0 0 0 0 0 0 0 0 0 0 0 0 0 0 0 0 0 0 0 0 0 0 0 0 0 0 0 0 0 0 0
0 0 0 0 0 0 0 0 0 0 0 0 0 0 0 0 0 0 0 0 0 0 0 0 0 0 0 0 0 0 0 0 0 0 0 0 0 0 0 0 0 0 0 0
0 0 0 0 0 0 0 0 0 0 0 0 0 0 0 0 0 0 0 0 0 0 0 0 0 0 0 0 0 0 0 0 0 0 0 0 0 0 0 0 0 0 0 0
0 0 0 0 0 0 0 0 0 0 0 0 0 0 0 0 0 0 0 0 0 0 0 0 0 0 0 0 0 0 0 0 0 0 0 0 0 0 0 0 0 0 0 0
0 0 0 0 0 0 0 0 0 0 0 0 0 0 0 0 0 0 0 0 0 0 0 0 0 0 0 0 0 0 0 0 0 0 0 0 0 0 0 0 0 0 0 0
0 0 0 0 0 0 0 0 0 0 0 0 0 0 0 0 0 0 0 0 0 0 0 0 0 0 0 0 0 0 0 0 0 0 0 0 0 0 0 0 0 0 0 0
Height
5851 5850 5849 5849 5848 5847 5846 5845 5844 5843 5841 5839 5836 5834 5831 5828 5825 5822 5819 5816 5813 5809 5805 5801 5797 5792 5788 5782 5777 5771 5765 5759 5753 5746 5740 5733 5726 5719 5712 5705 5697 5691 5684 5678
5848 5847 5846 5845 5844 5843 5842 5841 5840 5839 5837 5834 5832 5829 5826 5823 5820 5818 5815 5812 5808 5804 5800 5796 5791 5787 5782 5776 5770 5764 5758 5752 5746 5739 5732 5725 5718 5711 5703 5695 5688 5680 5674 5667
5845 5844 5843 5842 5841 5839 5838 5837 5836 5834 5833 5829 5827 5824 5821 5819 5816 5813 5810 5807 5803 5799 5795 5791 5786 5781 5775 5770 5764 5758 5751 5745 5738 5731 5724 5717 5709 5702 5694 5686 5678 5670 5663 5656
5842 5842 5840 5841 5837 5836 5835 5833 5832 5830 5827 5825 5822 5819 5817 5814 5811 5808 5805 5801 5797 5793 5789 5785 5780 5774 5769 5763 5757 5751 5744 5738 5731 5724 5716 5708 5700 5692 5684 5676 5668 5660 5652 5645
5839 5838 5837 5836 5834 5832 5831 5830 5828 5825 5823 5820 5817 5814 5812 5809 5806 5802 5799 5796 5792 5787 5783 5778 5773 5768 5762 5756 5750 5743 5737 5730 5723 5715 5708 5700 5691 5683 5675 5666 5658 5650 5642 5635
5835 5834 5833 5834 5831 5828 5828 5826 5824 5821 5818 5815 5812 5809 5807 5803 5800 5797 5793 5790 5786 5781 5777 5772 5767 5761 5755 5749 5743 5736 5729 5722 5715 5707 5699 5691 5683 5674 5665 5656 5648 5640 5632 5624
5830 5828 5828 5828 5825 5824 5824 5821 5818 5815 5812 5809 5806 5804 5801 5797 5794 5791 5787 5783 5779 5775 5770 5765 5760 5754 5747 5741 5735 5728 5721 5714 5706 5698 5690 5682 5673 5665 5656 5647 5639 5630 5623 5615
5824 5823 5824 5822 5820 5819 5817 5814 5812 5809 5806 5804 5801 5797 5794 5790 5787 5784 5780 5777 5772 5768 5763 5757 5752 5746 5740 5733 5727 5720 5712 5705 5697 5689 5681 5673 5664 5655 5647 5638 5630 5621 5613 5605
5819 5819 5818 5815 5813 5812 5810 5808 5806 5803 5800 5798 5794 5791 5787 5784 5780 5776 5773 5769 5765 5760 5755 5749 5743 5737 5731 5725 5718 5711 5704 5696 5688 5680 5671 5663 5654 5646 5637 5629 5621 5613 5605 5597
5811 5811 5810 5808 5807 5805 5803 5800 5798 5796 5793 5791 5787 5784 5781 5777 5773 5769 5765 5761 5756 5752 5746 5741 5735 5729 5723 5716 5710 5702 5695 5687 5679 5670 5662 5653 5645 5637 5629 5621 5613 5605 5597 5590
5803 5804 5802 5801 5799 5797 5795 5793 5791 5789 5786 5783 5780 5777 5773 5769 5765 5761 5757 5752 5748 5743 5737 5732 5726 5720 5714 5707 5701 5693 5686 5678 5669 5661 5652 5644 5635 5627 5620 5613 5605 5597 5590 5582
5796 5796 5794 5793 5792 5790 5788 5786 5783 5781 5778 5775 5772 5769 5765 5761 5757 5753 5748 5743 5738 5733 5728 5723 5717 5711 5705 5698 5691 5684 5676 5668 5660 5651 5643 5635 5627 5619 5611 5604 5597 5589 5582 5575
5788 5787 5785 5784 5783 5782 5780 5777 5774 5772 5769 5766 5763 5760 5756 5752 5748 5744 5739 5734 5729 5724 5719 5713 5707 5701 5695 5688 5681 5674 5666 5658 5650 5642 5634 5626 5619 5612 5605 5597 5589 5582 5575 5568
5780 5778 5776 5775 5773 5771 5769 5767 5764 5762 5759 5756 5753 5750 5747 5743 5739 5734 5729 5724 5719 5714 5709 5703 5697 5691 5685 5678 5671 5664 5656 5648 5641 5633 5625 5618 5611 5604 5597 5591 5584 5577 5569 5562
5771 5769 5766 5764 5763 5761 5759 5756 5754 5752 5749 5746 5743 5739 5736 5732 5728 5723 5719 5713 5709 5704 5699 5693 5687 5681 5674 5668 5661 5654 5646 5639 5631 5624 5617 5610 5603 5597 5590 5584 5577 5571 5564 5557
5760 5758 5756 5754 5753 5751 5748 5746 5744 5741 5738 5735 5731 5728 5724 5720 5716 5712 5707 5702 5697 5692 5687 5682 5676 5669 5662 5656 5650 5643 5636 5629 5622 5615 5609 5602 5596 5590 5584 5578 5571 5565 5558 5552
5750 5748 5746 5744 5742 5740 5737 5735 5732 5729 5726 5722 5719 5715 5711 5708 5704 5699 5695 5689 5685 5681 5675 5669 5663 5656 5651 5645 5638 5632 5625 5619 5613 5607 5601 5595 5589 5583 5578 5572 5566 5560 5554 5547
5740 5738 5736 5734 5731 5728 5725 5722 5719 5716 5712 5709 5705 5701 5697 5693 5689 5685 5680 5676 5671 5667 5662 5655 5649 5643 5638 5632 5627 5621 5615 5609 5604 5599 5593 5588 5582 5577 5572 5566 5561 5555 5549 5543
5728 5725 5723 5721 5718 5715 5712 5709 5705 5701 5697 5693 5690 5686 5681 5677 5673 5669 5665 5660 5655 5652 5647 5640 5635 5629 5624 5619 5614 5609 5604 5600 5595 5591 5586 5581 5576 5571 5566 5561 5556 5551 5545 5540
5714 5712 5709 5706 5703 5700 5697 5693 5689 5685 5681 5677 5673 5669 5665 5661 5656 5652 5648 5643 5638 5634 5630 5625 5620 5615 5611 5606 5602 5598 5594 5590 5586 5582 5578 5574 5570 5565 5561 5556 5551 5547 5542 5536
5700 5697 5694 5691 5688 5684 5680 5676 5672 5668 5664 5660 5656 5652 5648 5643 5639 5634 5630 5627 5622 5617 5613 5609 5605 5601 5597 5593 5590 5586 5583 5580 5577 5574 5571 5567 5563 5559 5555 5551 5547 5543 5538 5534
5685 5682 5679 5675 5672 5668 5664 5660 5655 5651 5647 5642 5638 5633 5629 5625 5621 5616 5612 5608 5605 5600 5597 5593 5590 5587 5584 5581 5578 5575 5573 5571 5569 5566 5563 5560 5557 5554 5550 5547 5543 5540 5536 5531
5669 5666 5662 5658 5655 5651 5647 5642 5638 5633 5629 5624 5619 5614 5610 5606 5602 5598 5595 5591 5586 5583 5580 5577 5575 5573 5570 5568 5566 5564 5563 5562 5560 5558 5556 5554 5551 5549 5546 5543 5540 5536 5533 5529
5652 5648 5644 5640 5636 5632 5628 5623 5618 5613 5608 5604 5599 5594 5589 5586 5582 5578 5574 5571 5568 5565 5563 5561 5560 5558 5557 5556 5555 5554 5554 5553 5552 5551 5549 5548 5546 5543 5541 5539 5536 5533 5530 5527
5634 5630 5625 5621 5617 5612 5608 5603 5598 5593 5588 5583 5578 5573 5568 5564 5561 5558 5554 5551 5549 5547 5546 5545 5544 5545 5545 5545 5545 5545 5545 5545 5544 5544 5543 5541 5540 5538 5536 5534 5532 5530 5528 5525
5616 5611 5607 5602 5597 5592 5588 5583 5578 5573 5568 5563 5559 5554 5549 5545 5541 5538 5535 5532 5530 5529 5529 5530 5531 5532 5533 5534 5535 5536 5536 5537 5537 5537 5536 5536 5535 5533 5532 5531 5529 5528 5526 5524
5598 5593 5589 5584 5579 5574 5569 5564 5559 5554 5549 5544 5540 5536 5532 5528 5525 5522 5519 5517 5515 5515 5516 5517 5519 5521 5523 5525 5527 5528 5529 5530 5530 5531 5531 5530 5530 5529 5528 5527 5526 5525 5524 5522
Wind_Speed
13 14 15 14 14 13 12 10 11 11 13 15 16 18 19 20 20 21 21 21 23 25 27 29 31 32 34 35 37 38 38 39 40 41 42 43 44 45 46 46 45 43 43 42
13 15 14 13 13 13 12 12 12 13 15 17 19 20 21 21 21 22 22 23 24 26 28 31 32 34 36 37 38 39 40 40 41 42 43 44 45 46 47 47 46 44 44 42
12 13 13 13 13 13 13 13 13 15 17 20 21 22 22 22 22 22 23 24 26 28 30 32 34 36 38 39 40 40 41 41 42 43 44 46 46 47 47 47 46 45 44 42
11 11 12 11 12 12 13 13 14 16 19 21 23 23 23 23 23 24 25 26 28 30 32 34 36 38 40 40 41 41 42 42 43 44 45 47 47 48 48 47 46 44 43 42
13 13 11 10 12 12 12 13 16 18 21 23 23 23 23 23 24 25 26 28 30 32 33 35 37 39 41 41 41 42 42 43 44 45 46 48 48 49 48 47 46 44 43 42
15 14 10 10 12 13 13 14 17 19 21 23 24 24 24 25 26 27 28 29 31 33 35 37 39 40 41 41 42 42 43 44 45 46 47 48 49 49 49 47 45 44 42 42
18 16 13 13 14 14 17 18 18 20 21 23 25 26 26 27 28 29 30 31 33 35 37 39 40 41 41 42 43 43 44 46 47 48 49 49 49 50 49 47 45 43 42 41
20 18 19 18 18 19 20 20 21 22 24 25 26 27 29 30 31 31 32 33 35 37 39 41 41 42 42 43 44 45 46 47 48 49 50 50 50 49 48 46 44 42 41 40
23 21 21 22 22 23 23 24 24 25 26 27 28 29 30 32 33 34 35 36 37 39 41 42 42 42 43 44 45 47 48 49 50 50 50 50 50 49 47 45 43 40 39 39
27 24 25 25 26 26 27 28 28 29 30 30 31 31 32 33 34 36 37 39 40 41 42 43 43 43 44 46 48 49 50 51 51 51 51 51 50 48 46 44 42 40 38 38
29 28 29 28 29 29 29 30 31 32 33 33 33 33 34 34 36 37 39 41 42 42 43 44 45 45 47 48 50 51 53 53 53 52 51 49 48 47 45 43 41 38 37 37
32 31 32 31 31 31 31 32 33 35 35 35 36 35 35 36 37 38 40 41 42 43 44 46 47 49 50 51 52 53 55 55 54 52 50 48 46 45 44 42 40 38 37 36
33 33 34 33 33 33 34 35 36 37 38 38 38 38 38 38 39 39 40 41 43 44 45 48 49 52 53 54 54 56 57 55 53 51 48 46 45 43 41 40 38 38 37 35
34 35 36 35 35 36 37 37 38 39 40 40 40 40 40 41 41 42 42 42 45 45 47 49 52 55 56 56 56 58 58 55 52 49 47 44 43 41 40 37 36 35 35 34
34 36 37 38 39 39 39 40 41 41 42 43 43 43 43 44 45 45 45 47 48 48 49 51 54 57 57 57 58 59 58 54 51 47 45 42 41 39 38 37 35 34 33 32
37 39 40 41 41 42 43 43 44 44 45 46 46 46 46 48 49 48 49 50 51 51 52 55 57 58 59 60 60 59 56 53 49 45 42 40 39 37 36 35 34 33 32 31
39 41 42 43 43 44 45 45 46 46 47 47 47 48 49 49 50 51 51 52 53 55 56 57 58 60 61 60 58 56 54 50 46 42 40 38 37 36 35 34 32 31 31 30
40 41 42 43 44 45 45 46 47 47 48 49 51 52 53 54 55 55 56 58 59 59 59 60 61 61 60 58 55 53 50 46 43 40 37 36 35 34 33 32 30 30 29 29
42 42 43 44 44 45 46 47 48 50 52 53 54 56 58 59 60 60 61 62 62 60 59 60 60 59 57 54 52 49 46 43 41 38 35 34 33 32 31 30 28 27 27 28
44 45 46 46 47 48 50 52 53 55 56 58 60 61 62 63 63 64 63 63 62 61 59 58 57 55 53 51 48 45 43 40 38 35 33 32 31 29 29 27 26 25 26 26
47 48 49 50 51 53 55 57 59 60 62 63 64 64 64 65 65 64 64 62 60 59 58 56 53 51 49 47 44 42 39 36 34 32 30 29 27 27 26 25 23 23 23 24
51 52 53 55 56 58 59 61 63 64 65 66 66 66 66 65 64 63 62 61 59 57 55 52 50 47 45 43 41 38 35 32 30 29 27 25 24 24 23 22 20 20 21 22
55 57 58 59 60 62 63 64 65 65 65 66 66 66 65 64 63 62 59 58 56 54 52 49 47 44 42 39 36 34 31 28 27 26 25 23 22 22 21 19 18 18 18 20
59 60 61 62 63 64 65 65 65 66 66 66 66 65 64 63 61 60 59 56 54 51 48 46 42 40 37 34 31 29 26 25 24 23 22 21 20 20 18 17 16 15 16 17
62 62 63 64 65 65 66 66 66 66 66 65 65 64 63 61 60 57 55 52 49 47 44 40 37 34 32 30 28 25 23 21 21 21 19 19 18 17 16 15 14 13 13 14
63 64 64 65 65 66 65 65 65 64 63 62 61 59 58 56 54 51 48 46 43 40 37 34 31 29 27 25 23 22 22 21 20 19 17 17 16 14 13 12 11 11 11 12
62 62 63 62 62 62 61 61 60 59 58 57 54 52 50 48 45 42 40 37 34 31 28 26 24 23 23 22 21 20 19 19 18 17 16 15 14 13 12 10 9 8 8 9
Wind_Direction
271 274 279 283 283 282 287 292 299 307 308 310 314 319 324 327 327 328 328 327 329 330 332 333 333 333 333 332 332 332 332 332 331 331 330 330 330 329 328 327 325 322 320 316
276 279 285 286 284 284 289 296 301 303 305 308 313 318 321 322 322 322 323 324 325 327 329 330 331 331 331 331 331 331 330 330 330 329 329 329 328 328 327 326 325 322 320 317
279 284 290 292 289 290 294 299 300 301 303 307 311 316 318 319 319 319 320 322 324 325 327 328 329 330 330 329 329 329 329 329 329 329 328 327 327 327 327 326 324 322 320 317
281 290 299 297 293 293 295 298 298 299 303 306 310 314 315 316 316 318 319 321 323 324 326 327 327 328 328 328 328 328 329 328 328 328 327 327 327 327 327 326 324 322 320 318
284 292 295 293 293 295 297 300 299 301 302 305 308 311 313 314 315 316 318 320 322 323 324 325 326 326 327 327 327 328 328 328 328 328 327 327 327 327 326 326 324 323 321 320
280 285 284 291 290 294 295 300 298 299 299 303 306 310 313 314 314 315 317 318 320 321 322 323 324 325 326 327 327 327 328 328 327 327 327 326 326 326 326 325 324 323 322 321
279 283 291 297 297 296 301 301 300 300 301 304 307 309 311 312 313 314 315 316 318 319 320 322 323 324 325 326 327 327 326 327 326 326 326 325 325 326 326 326 325 323 322 322
280 285 293 295 297 298 299 300 301 301 302 304 306 307 308 309 310 312 313 315 316 317 319 321 322 324 325 326 327 326 326 326 325 325 325 325 325 325 326 326 326 324 324 323
280 284 290 292 294 296 297 298 299 300 301 303 304 305 305 306 308 310 311 313 315 316 318 320 321 323 324 325 326 327 326 326 325 324 324 324 325 325 325 326 326 325 325 325
280 284 285 287 291 293 295 297 299 299 300 301 302 302 302 303 305 307 310 312 314 316 318 320 321 322 323 324 325 326 326 326 325 324 324 324 325 326 326 326 326 325 325 326
275 279 280 283 286 289 292 294 296 296 296 297 298 299 299 301 303 306 308 311 313 316 318 319 320 321 322 323 323 324 325 325 325 324 324 324 325 326 326 326 327 326 326 327
275 278 280 283 285 288 290 291 291 292 293 294 295 297 298 300 302 304 307 310 312 315 316 318 319 320 321 321 322 323 324 325 325 324 325 325 325 325 325 326 327 328 328 328
277 279 281 284 286 288 288 289 290 291 292 293 295 296 297 299 300 302 305 308 310 312 314 315 317 318 319 319 320 322 323 324 325 325 325 325 326 326 325 326 328 328 328 329
277 279 282 283 285 285 286 288 289 290 292 293 294 295 296 297 298 299 301 304 308 309 311 312 313 315 315 316 318 320 322 323 323 324 325 326 326 326 326 326 327 328 328 328
277 278 279 280 282 283 285 286 288 289 290 291 292 293 294 296 297 297 298 301 304 304 306 308 309 310 311 313 316 318 320 321 322 323 324 325 326 326 326 327 327 328 329 329
277 277 278 279 282 284 285 287 288 289 289 290 291 291 292 293 295 297 298 299 301 301 303 305 306 307 308 311 314 316 317 319 321 323 323 325 325 325 326 327 327 329 330 331
275 277 279 281 283 285 286 287 287 288 289 289 290 291 292 293 294 296 296 296 298 300 301 303 304 305 307 310 311 313 315 317 319 321 322 323 325 324 325 326 326 328 331 332
278 279 281 283 283 284 284 285 286 287 287 288 289 289 290 291 292 293 294 295 297 299 300 300 301 303 305 307 309 310 312 314 316 317 319 321 323 324 324 325 326 328 331 332
283 283 284 284 284 284 284 284 285 285 286 286 287 288 289 291 292 294 294 295 297 298 299 299 301 302 304 305 307 308 309 311 312 313 315 318 320 322 324 324 325 328 331 333
284 284 285 285 285 285 286 286 286 286 286 287 288 290 291 292 294 295 296 296 297 298 298 299 300 301 302 303 304 305 305 307 309 310 312 314 317 320 323 324 325 328 331 334
284 284 285 286 286 287 287 287 288 289 290 291 292 292 293 294 294 295 295 295 296 296 297 297 298 298 299 300 300 301 302 303 305 307 310 312 313 317 320 322 323 327 331 335
285 286 286 287 287 288 288 289 289 290 291 292 292 293 293 293 294 294 294 295 295 295 295 295 295 295 296 296 296 296 297 298 301 303 306 309 311 314 318 320 322 326 331 336
287 287 288 288 288 289 289 290 290 291 291 292 292 293 293 293 293 293 293 293 293 292 292 292 292 292 292 292 293 292 292 293 296 299 302 304 307 311 315 318 319 323 331 337
288 288 289 290 290 291 291 292 293 293 294 294 294 294 294 294 294 294 294 293 291 290 289 288 288 287 286 287 288 287 287 289 291 294 297 299 302 307 312 316 316 320 328 335
289 290 291 292 293 293 294 294 295 296 296 296 296 296 296 296 296 295 294 292 290 288 286 284 282 281 280 281 282 281 281 283 286 290 293 295 299 302 308 311 313 317 326 333
291 292 293 294 295 295 296 297 298 298 298 298 298 298 298 298 297 296 294 292 289 285 281 278 274 272 272 274 274 273 274 277 282 284 287 291 294 298 303 306 306 313 324 333
292 293 294 295 296 297 298 299 300 300 300 300 300 300 300 299 298 297 295 293 288 282 277 272 267 263 263 266 267 267 268 271 273 277 282 285 287 291 296 298 299 306 319 331